Location: Chena
(64.8152°N, 147.9227°W)
Time: 08:17:39
(UTC+00:00)

N. Korean satellite - Pass Details

Date: 26 January 2021
Orbit: 451 x 502 km, 97.2° (Epoch: 08 March)

Event Time Altitude Azimuth Distance (km) Brightness Sun altitude
Rises 15:10:43 0° 19° (NNE) 2,539 10.5 -22.4°
Reaches altitude 10° 15:12:54 10° 28° (NNE) 1,647 9.6 -22.2°
Maximum altitude 15:16:14 38° 98° (E) 725 7.9 -21.8°
Drops below altitude 10° 15:19:29 10° 169° (SSE) 1,611 9.3 -21.5°
Sets 15:21:36 0° 177° (S) 2,475 10.2 -21.3°
